DELTA 1 DEB, 10841

Orbit data source: Space-Track

DELTA 1 DEB, 10841 is space debris in SSO originally from a launch on Thu, 29 Jul 1976 UTC launched from the Air Force Western Test Range (AFWTR). Debris objects in space refer to the collection of defunct objects orbiting the Earth. Examples of debris include non-operational satellites, rocket bodies, and fragments generated from explosions, collisions, or faulty payload assembly.

Loading next visibility...
Identifier
10841, 1976-077CM
Orbit
SSO
Country
Flag of USUS
Related business
Manufacturer
Unknown
Mission
Spacecraft
Bus & Motor
Unknown
Mass
Unknown
Launch date (UTC)
1976-07-29 (50 years ago)
Launch vehicle
Unknown
Launch site
Air Force Western Test Range (AFWTR)
Object type
Payload
Rocket body
Debris
Shape & HBR
Unknown shape, 0.1 m
Radar Cross Section
Small (<0.1 m²)

Expand to show TLE details & history
Last TLE update: 6 hours ago

TLE from 6 hours ago
0 DELTA 1 DEB
1 10841U 76077CM  26104.61974333 -.00000018  00000-0  17687-3 0  9992
2 10841 101.9465  89.8012 0065772 238.4531 174.0326 12.53067903271686
Epoch: 2026-04-14T14:52Z
TLE epoch observation values (Epoch: 2026-04-14T14:52:25.823Z)
Latitude
51.06483°
Longitude
8.79406°
Altitude
1,510.894 km
Speed
7.091 km/s
True Right ascension
04h 58m 46s
True Declination
50° 54' 46"
Sunlit
Object was in daylight at epoch
Visualization orbit readout
Latitude
Unknown
Longitude
Unknown
Altitude
Unknown
Speed
Unknown
Apparent Right ascension
Unknown
Apparent Declination
Unknown
Sunlit
N/A
Visualization observer readout
Local Sidereal Time
03:35:24
Azimuth
Unknown
Elevation
Unknown
Doppler factor
Unknown
Orbital elements
Apogee altitude
1,500.725 km
Perigee altitude
1,397.761 km
Semi-major axis
7,827.38 km
Eccentricity
0.00658
Inclination
101.9465°
RAAN
89.8012°
Arg. of periapsis
238.4531°
True anomaly
174.11032°
Mean anomaly
174.0326°
Eccentric anomaly
174.07152°
Mean motion
3.13414 °/min
Orbital period
114.86 mins
BSTAR
0.00017687
Loading maneuver chart data...
Computing Atmospheric mass density...
Loading historical data...
Loading historical data...
Loading historical data...
Loading historical data...
Loading historical data...
Loading historical data...
Loading historical data...

Documentation

Showing up to 5 results
|